Location: Unspecified
(0.0000°N, 0.0000°E)
Time: 18:12:23
(UTC+00:00)

Vanguard 3 - Pass Details

Date: 29 September 2023
Orbit: 507 x 3241 km, 33.3° (Epoch: 29 November)

Event Time Altitude Azimuth Distance (km) Brightness Sun altitude
Rises 02:49:41 0° 300° (WNW) 2,614 - -45.2°
Reaches altitude 10° 02:51:37 10° 297° (WNW) 1,799 - -44.7°
Maximum altitude 02:55:30 68° 214° (SW) 702 - -43.7°
Exits shadow 03:00:14 14° 132° (SE) 2,222 9.8 -42.5°
Drops below altitude 10° 03:01:13 10° 131° (SE) 2,619 10.2 -42.3°
Sets 03:04:35 0° 129° (SE) 3,962 11.3 -41.4°
